Time,TemperatureF,DewpointF,PressureIn,WindDirection,WindDirectionDegrees,WindSpeedMPH,WindSpeedGustMPH,Humidity,HourlyPrecipIn,Conditions,Clouds,dailyrainin,SoftwareType,DateUTC
2013-02-21 00:03:00,20.0,15.0,30.13,West,273,9.0,21.0,79,0.00,,,0.00,,2013-02-21 05:03:00,
2013-02-21 00:12:00,20.0,15.0,30.13,West,273,9.0,21.0,79,0.00,,,0.00,,2013-02-21 05:12:00,
2013-02-21 00:22:00,20.0,15.0,30.12,West,279,5.0,19.0,80,0.00,,,0.00,,2013-02-21 05:22:00,
2013-02-21 00:35:00,20.0,15.0,30.12,NW,304,5.0,15.0,81,0.00,,,0.00,,2013-02-21 05:35:00,
2013-02-21 00:45:00,20.0,15.0,30.12,NW,304,5.0,15.0,81,0.00,,,0.00,,2013-02-21 05:45:00,
2013-02-21 01:01:00,20.0,15.0,30.13,West,270,5.0,15.0,81,0.00,,,0.00,,2013-02-21 06:01:00,
2013-02-21 01:11:00,20.0,15.0,30.12,West,275,6.0,14.0,82,0.00,,,0.00,,2013-02-21 06:11:00,
2013-02-21 01:21:00,20.0,15.0,30.12,WNW,290,7.0,14.0,82,0.00,,,0.00,,2013-02-21 06:21:00,
2013-02-21 01:31:00,20.0,15.0,30.12,WNW,290,7.0,14.0,82,0.00,,,0.00,,2013-02-21 06:31:00,
2013-02-21 01:41:00,20.0,15.0,30.12,WNW,290,7.0,14.0,82,0.00,,,0.00,,2013-02-21 06:41:00,
2013-02-21 01:52:00,21.0,16.0,30.12,West,270,6.0,14.0,81,0.00,,,0.00,,2013-02-21 06:52:00,
2013-02-21 02:01:00,21.0,16.0,30.12,West,270,6.0,14.0,81,0.00,,,0.00,,2013-02-21 07:01:00,
2013-02-21 02:11:00,21.0,16.0,30.12,West,270,6.0,14.0,81,0.00,,,0.00,,2013-02-21 07:11:00,
2013-02-21 02:21:00,21.0,16.0,30.13,West,276,9.0,24.0,82,0.00,,,0.00,,2013-02-21 07:21:00,
2013-02-21 02:32:00,21.0,16.0,30.13,West,276,9.0,24.0,82,0.00,,,0.00,,2013-02-21 07:32:00,
2013-02-21 02:42:00,21.0,17.0,30.14,WNW,284,9.0,25.0,83,0.00,,,0.00,,2013-02-21 07:42:00,
2013-02-21 02:52:00,21.0,17.0,30.14,WNW,284,9.0,25.0,83,0.00,,,0.00,,2013-02-21 07:52:00,
2013-02-21 03:01:00,21.0,17.0,30.14,WNW,284,9.0,25.0,83,0.00,,,0.00,,2013-02-21 08:01:00,
2013-02-21 03:11:00,21.0,17.0,30.14,WNW,284,9.0,25.0,83,0.00,,,0.00,,2013-02-21 08:11:00,
2013-02-21 03:21:00,20.0,17.0,30.13,WNW,286,12.0,19.0,87,0.00,,,0.00,,2013-02-21 08:21:00,
2013-02-21 03:32:00,19.0,16.0,30.13,NW,309,11.0,18.0,87,0.00,,,0.00,,2013-02-21 08:32:00,
2013-02-21 03:42:00,19.0,16.0,30.13,NW,309,11.0,18.0,87,0.00,,,0.00,,2013-02-21 08:42:00,
2013-02-21 03:52:00,19.0,16.0,30.14,NW,305,7.0,17.0,86,0.00,,,0.00,,2013-02-21 08:52:00,
2013-02-21 04:02:00,19.0,16.0,30.14,NW,304,8.0,20.0,86,0.00,,,0.00,,2013-02-21 09:02:00,
2013-02-21 04:11:00,19.0,16.0,30.14,NW,304,8.0,20.0,86,0.00,,,0.00,,2013-02-21 09:11:00,
2013-02-21 04:22:00,18.0,15.0,30.15,WNW,291,11.0,21.0,86,0.00,,,0.00,,2013-02-21 09:22:00,
2013-02-21 04:32:00,18.0,15.0,30.16,NW,309,7.0,20.0,86,0.00,,,0.00,,2013-02-21 09:32:00,
2013-02-21 04:42:00,18.0,15.0,30.16,NW,309,7.0,20.0,86,0.00,,,0.00,,2013-02-21 09:42:00,
2013-02-21 04:52:00,18.0,15.0,30.16,NW,321,5.0,16.0,86,0.00,,,0.00,,2013-02-21 09:52:00,
2013-02-21 05:01:00,17.0,14.0,30.17,NW,311,5.0,26.0,86,0.00,,,0.00,,2013-02-21 10:01:00,
2013-02-21 05:11:00,17.0,14.0,30.17,NW,311,5.0,26.0,86,0.00,,,0.00,,2013-02-21 10:11:00,
2013-02-21 05:21:00,17.0,14.0,30.18,NW,315,12.0,22.0,86,0.00,,,0.00,,2013-02-21 10:21:00,
2013-02-21 05:31:00,16.0,13.0,30.19,NW,318,8.0,20.0,86,0.00,,,0.00,,2013-02-21 10:31:00,
2013-02-21 05:41:00,16.0,13.0,30.19,NW,318,8.0,20.0,86,0.00,,,0.00,,2013-02-21 10:41:00,
2013-02-21 05:51:00,16.0,12.0,30.19,WNW,294,13.0,20.0,85,0.00,,,0.00,,2013-02-21 10:51:00,
2013-02-21 06:01:00,16.0,12.0,30.20,NW,307,10.0,22.0,83,0.00,,,0.00,,2013-02-21 11:01:00,
2013-02-21 06:11:00,16.0,12.0,30.20,NW,307,10.0,22.0,83,0.00,,,0.00,,2013-02-21 11:11:00,
2013-02-21 06:21:00,15.0,11.0,30.21,NW,326,7.0,19.0,84,0.00,,,0.00,,2013-02-21 11:21:00,
2013-02-21 06:31:00,15.0,11.0,30.22,WNW,291,12.0,22.0,83,0.00,,,0.00,,2013-02-21 11:31:00,
2013-02-21 06:41:00,15.0,11.0,30.22,WNW,291,12.0,22.0,83,0.00,,,0.00,,2013-02-21 11:41:00,
2013-02-21 06:51:00,15.0,11.0,30.23,WNW,290,12.0,21.0,82,0.00,,,0.00,,2013-02-21 11:51:00,
2013-02-21 07:01:00,15.0,11.0,30.23,WNW,290,12.0,21.0,82,0.00,,,0.00,,2013-02-21 12:01:00,
2013-02-21 07:11:00,15.0,11.0,30.23,WNW,290,12.0,21.0,82,0.00,,,0.00,,2013-02-21 12:11:00,
2013-02-21 07:22:00,14.0,10.0,30.24,North,355,6.0,19.0,84,0.00,,,0.00,,2013-02-21 12:22:00,
2013-02-21 07:32:00,14.0,10.0,30.24,WNW,302,9.0,23.0,84,0.00,,,0.00,,2013-02-21 12:32:00,
2013-02-21 07:43:00,14.0,10.0,30.24,WNW,302,9.0,23.0,84,0.00,,,0.00,,2013-02-21 12:43:00,
2013-02-21 07:52:00,14.0,10.0,30.25,WNW,286,12.0,23.0,84,0.00,,,0.00,,2013-02-21 12:52:00,
2013-02-21 08:02:00,14.0,11.0,30.26,WNW,288,5.0,19.0,86,0.00,,,0.00,,2013-02-21 13:02:00,
2013-02-21 08:12:00,14.0,11.0,30.26,WNW,288,5.0,19.0,86,0.00,,,0.00,,2013-02-21 13:12:00,
2013-02-21 08:22:00,14.0,11.0,30.27,WNW,302,7.0,21.0,86,0.00,,,0.00,,2013-02-21 13:22:00,
2013-02-21 08:32:00,14.0,11.0,30.27,WNW,289,5.0,18.0,86,0.00,,,0.00,,2013-02-21 13:32:00,
2013-02-21 08:42:00,14.0,11.0,30.27,WNW,289,5.0,18.0,86,0.00,,,0.00,,2013-02-21 13:42:00,
2013-02-21 08:51:00,14.0,10.0,30.28,NW,319,8.0,20.0,85,0.00,,,0.00,,2013-02-21 13:51:00,
2013-02-21 09:02:00,14.0,10.0,30.29,WNW,289,5.0,18.0,83,0.00,,,0.00,,2013-02-21 14:02:00,
2013-02-21 09:11:00,14.0,10.0,30.29,WNW,289,5.0,18.0,83,0.00,,,0.00,,2013-02-21 14:11:00,
2013-02-21 09:22:00,14.0,10.0,30.29,NW,323,7.0,22.0,82,0.00,,,0.00,,2013-02-21 14:22:00,
2013-02-21 09:32:00,14.0,9.0,30.30,NNW,334,9.0,17.0,79,0.00,,,0.00,,2013-02-21 14:32:00,
2013-02-21 09:42:00,14.0,9.0,30.30,NNW,334,9.0,17.0,79,0.00,,,0.00,,2013-02-21 14:42:00,
2013-02-21 09:52:00,15.0,9.0,30.31,WNW,301,9.0,24.0,77,0.00,,,0.00,,2013-02-21 14:52:00,
2013-02-21 10:02:00,14.0,9.0,30.32,NNW,333,10.0,20.0,79,0.00,,,0.00,,2013-02-21 15:02:00,
2013-02-21 10:12:00,14.0,9.0,30.32,NNW,333,10.0,20.0,79,0.00,,,0.00,,2013-02-21 15:12:00,
2013-02-21 10:22:00,14.0,9.0,30.33,WNW,299,8.0,19.0,79,0.00,,,0.00,,2013-02-21 15:22:00,
2013-02-21 10:32:00,15.0,9.0,30.33,West,266,9.0,18.0,77,0.00,,,0.00,,2013-02-21 15:32:00,
2013-02-21 10:42:00,15.0,9.0,30.33,West,266,9.0,18.0,77,0.00,,,0.00,,2013-02-21 15:42:00,
2013-02-21 10:52:00,15.0,9.0,30.35,NW,315,9.0,17.0,76,0.00,,,0.00,,2013-02-21 15:52:00,
2013-02-21 11:02:00,15.0,9.0,30.34,WNW,293,12.0,22.0,76,0.00,,,0.00,,2013-02-21 16:02:00,
2013-02-21 11:12:00,15.0,9.0,30.34,WNW,293,12.0,22.0,76,0.00,,,0.00,,2013-02-21 16:12:00,
2013-02-21 11:22:00,16.0,10.0,30.35,NW,311,6.0,17.0,77,0.00,,,0.00,,2013-02-21 16:22:00,
2013-02-21 11:32:00,15.0,9.0,30.36,NNW,336,5.0,20.0,77,0.00,,,0.00,,2013-02-21 16:32:00,
2013-02-21 11:42:00,16.0,10.0,30.36,West,279,9.0,17.0,77,0.00,,,0.00,,2013-02-21 16:42:00,
2013-02-21 11:52:00,16.0,10.0,30.36,West,279,9.0,17.0,77,0.00,,,0.00,,2013-02-21 16:52:00,
2013-02-21 12:02:00,16.0,9.0,30.35,WNW,290,12.0,22.0,75,0.00,,,0.00,,2013-02-21 17:02:00,
2013-02-21 12:11:00,16.0,9.0,30.35,WNW,290,12.0,22.0,75,0.00,,,0.00,,2013-02-21 17:11:00,
2013-02-21 12:22:00,16.0,9.0,30.35,NW,318,11.0,23.0,75,0.00,,,0.00,,2013-02-21 17:22:00,
2013-02-21 12:32:00,16.0,10.0,30.34,NW,317,12.0,19.0,76,0.00,,,0.00,,2013-02-21 17:32:00,
2013-02-21 12:42:00,16.0,10.0,30.34,NW,317,12.0,19.0,76,0.00,,,0.00,,2013-02-21 17:42:00,
2013-02-21 12:52:00,16.0,10.0,30.34,WNW,297,4.0,18.0,76,0.00,,,0.00,,2013-02-21 17:52:00,
2013-02-21 13:02:00,16.0,10.0,30.34,WNW,292,10.0,21.0,77,0.00,,,0.00,,2013-02-21 18:02:00,
2013-02-21 13:12:00,16.0,10.0,30.34,WNW,292,10.0,21.0,77,0.00,,,0.00,,2013-02-21 18:12:00,
2013-02-21 13:22:00,17.0,11.0,30.35,NW,306,7.0,15.0,77,0.00,,,0.00,,2013-02-21 18:22:00,
2013-02-21 13:32:00,18.0,12.0,30.35,West,276,8.0,18.0,76,0.00,,,0.00,,2013-02-21 18:32:00,
2013-02-21 13:42:00,18.0,12.0,30.35,West,276,8.0,18.0,76,0.00,,,0.00,,2013-02-21 18:42:00,
2013-02-21 13:51:00,18.0,12.0,30.36,NW,323,4.0,20.0,78,0.00,,,0.00,,2013-02-21 18:51:00,
2013-02-21 14:02:00,18.0,12.0,30.36,NW,323,4.0,20.0,78,0.00,,,0.00,,2013-02-21 19:02:00,
2013-02-21 14:12:00,18.0,12.0,30.36,NW,323,4.0,20.0,78,0.00,,,0.00,,2013-02-21 19:12:00,
2013-02-21 14:21:00,18.0,12.0,30.36,NW,312,6.0,18.0,78,0.00,,,0.00,,2013-02-21 19:21:00,
2013-02-21 14:32:00,18.0,13.0,30.36,NW,323,5.0,17.0,79,0.00,,,0.00,,2013-02-21 19:32:00,
2013-02-21 14:42:00,18.0,13.0,30.36,NW,323,5.0,17.0,79,0.00,,,0.00,,2013-02-21 19:42:00,
2013-02-21 14:52:00,18.0,13.0,30.36,WNW,297,7.0,18.0,79,0.00,,,0.00,,2013-02-21 19:52:00,
2013-02-21 15:01:00,19.0,13.0,30.36,NW,323,7.0,16.0,78,0.00,,,0.00,,2013-02-21 20:01:00,
2013-02-21 15:11:00,20.0,14.0,30.37,NW,310,4.0,15.0,77,0.00,,,0.00,,2013-02-21 20:11:00,
2013-02-21 15:21:00,20.0,14.0,30.37,NW,310,4.0,15.0,77,0.00,,,0.00,,2013-02-21 20:21:00,
2013-02-21 15:32:00,20.0,14.0,30.38,NNW,331,2.0,18.0,76,0.00,,,0.00,,2013-02-21 20:32:00,
2013-02-21 15:42:00,20.0,14.0,30.38,NNW,331,2.0,18.0,76,0.00,,,0.00,,2013-02-21 20:42:00,
2013-02-21 15:52:00,19.0,12.0,30.39,NW,306,8.0,16.0,75,0.00,,,0.00,,2013-02-21 20:52:00,
2013-02-21 16:02:00,19.0,12.0,30.40,NW,304,4.0,13.0,75,0.00,,,0.00,,2013-02-21 21:02:00,
2013-02-21 16:12:00,19.0,12.0,30.40,NW,304,4.0,13.0,75,0.00,,,0.00,,2013-02-21 21:12:00,
2013-02-21 16:22:00,19.0,13.0,30.41,NNW,342,8.0,13.0,76,0.00,,,0.00,,2013-02-21 21:22:00,
2013-02-21 16:32:00,19.0,13.0,30.42,WNW,284,9.0,16.0,76,0.00,,,0.00,,2013-02-21 21:32:00,
2013-02-21 16:42:00,19.0,14.0,30.42,NNW,336,5.0,14.0,79,0.00,,,0.00,,2013-02-21 21:42:00,
2013-02-21 16:52:00,19.0,14.0,30.42,NNW,336,5.0,14.0,79,0.00,,,0.00,,2013-02-21 21:52:00,
2013-02-21 17:01:00,19.0,13.0,30.42,NNW,348,8.0,13.0,78,0.00,,,0.00,,2013-02-21 22:01:00,
2013-02-21 17:11:00,19.0,13.0,30.42,NNW,348,8.0,13.0,78,0.00,,,0.00,,2013-02-21 22:11:00,
2013-02-21 17:21:00,19.0,14.0,30.41,NW,321,5.0,12.0,79,0.00,,,0.00,,2013-02-21 22:21:00,
2013-02-21 17:32:00,19.0,14.0,30.42,NW,305,5.0,13.0,79,0.00,,,0.00,,2013-02-21 22:32:00,
2013-02-21 17:42:00,19.0,14.0,30.42,NW,305,5.0,13.0,79,0.00,,,0.00,,2013-02-21 22:42:00,
2013-02-21 17:52:00,19.0,14.0,30.42,NW,308,2.0,13.0,79,0.00,,,0.00,,2013-02-21 22:52:00,
2013-02-21 18:01:00,20.0,15.0,30.42,WNW,292,3.0,9.0,80,0.00,,,0.00,,2013-02-21 23:01:00,
2013-02-21 18:11:00,20.0,15.0,30.42,WNW,292,3.0,9.0,80,0.00,,,0.00,,2013-02-21 23:11:00,
2013-02-21 18:21:00,20.0,15.0,30.42,WNW,287,3.0,8.0,80,0.00,,,0.00,,2013-02-21 23:21:00,
2013-02-21 18:32:00,20.0,15.0,30.43,NW,309,2.0,5.0,81,0.00,,,0.00,,2013-02-21 23:32:00,
2013-02-21 18:42:00,20.0,15.0,30.43,NW,309,2.0,5.0,81,0.00,,,0.00,,2013-02-21 23:42:00,
2013-02-21 18:52:00,20.0,15.0,30.45,WNW,300,4.0,10.0,80,0.00,,,0.00,,2013-02-21 23:52:00,
2013-02-21 19:02:00,21.0,16.0,30.47,WSW,254,4.0,12.0,80,0.00,,,0.00,,2013-02-22 00:02:00,
2013-02-21 19:11:00,21.0,16.0,30.47,WSW,254,4.0,12.0,80,0.00,,,0.00,,2013-02-22 00:11:00,
2013-02-21 19:22:00,21.0,16.0,30.50,West,271,3.0,10.0,81,0.00,,,0.00,,2013-02-22 00:22:00,
2013-02-21 19:32:00,21.0,16.0,30.51,WNW,291,1.0,9.0,81,0.00,,,0.00,,2013-02-22 00:32:00,
2013-02-21 19:42:00,21.0,16.0,30.51,WNW,291,1.0,9.0,81,0.00,,,0.00,,2013-02-22 00:42:00,
2013-02-21 19:52:00,21.0,16.0,30.51,West,276,2.0,7.0,81,0.00,,,0.00,,2013-02-22 00:52:00,
2013-02-21 20:01:00,21.0,16.0,30.51,WNW,282,3.0,9.0,80,0.00,,,0.00,,2013-02-22 01:01:00,
2013-02-21 20:11:00,21.0,16.0,30.51,WNW,282,3.0,9.0,80,0.00,,,0.00,,2013-02-22 01:11:00,
2013-02-21 20:22:00,22.0,16.0,30.51,WSW,252,3.0,8.0,79,0.00,,,0.00,,2013-02-22 01:22:00,
2013-02-21 20:32:00,22.0,16.0,30.52,WSW,258,3.0,10.0,78,0.00,,,0.00,,2013-02-22 01:32:00,
2013-02-21 20:42:00,22.0,16.0,30.52,WSW,258,3.0,10.0,78,0.00,,,0.00,,2013-02-22 01:42:00,
2013-02-21 20:51:00,22.0,16.0,30.52,WSW,257,3.0,8.0,78,0.00,,,0.00,,2013-02-22 01:51:00,
2013-02-21 21:02:00,22.0,16.0,30.52,West,281,2.0,7.0,78,0.00,,,0.00,,2013-02-22 02:02:00,
2013-02-21 21:11:00,22.0,16.0,30.52,West,281,2.0,7.0,78,0.00,,,0.00,,2013-02-22 02:11:00,
2013-02-21 21:21:00,22.0,16.0,30.51,WNW,299,2.0,7.0,77,0.00,,,0.00,,2013-02-22 02:21:00,
2013-02-21 21:32:00,23.0,17.0,30.52,WNW,289,2.0,8.0,77,0.00,,,0.00,,2013-02-22 02:32:00,
2013-02-21 21:42:00,23.0,17.0,30.52,WNW,289,2.0,8.0,77,0.00,,,0.00,,2013-02-22 02:42:00,
2013-02-21 21:52:00,23.0,17.0,30.51,NW,314,2.0,7.0,77,0.00,,,0.00,,2013-02-22 02:52:00,
2013-02-21 22:02:00,23.0,17.0,30.51,NW,310,2.0,5.0,78,0.00,,,0.00,,2013-02-22 03:02:00,
2013-02-21 22:11:00,23.0,17.0,30.51,NW,310,2.0,5.0,78,0.00,,,0.00,,2013-02-22 03:11:00,
2013-02-21 22:21:00,23.0,17.0,30.51,WNW,300,0.0,4.0,79,0.00,,,0.00,,2013-02-22 03:21:00,
2013-02-21 22:32:00,23.0,17.0,30.50,NW,319,0.0,3.0,79,0.00,,,0.00,,2013-02-22 03:32:00,
2013-02-21 22:42:00,23.0,17.0,30.50,NW,319,0.0,3.0,79,0.00,,,0.00,,2013-02-22 03:42:00,
2013-02-21 22:52:00,22.0,16.0,30.50,NW,319,0.0,3.0,79,0.00,,,0.00,,2013-02-22 03:52:00,
2013-02-21 23:02:00,22.0,17.0,30.50,NW,319,0.0,2.0,80,0.00,,,0.00,,2013-02-22 04:02:00,
2013-02-21 23:11:00,22.0,17.0,30.50,NW,319,0.0,2.0,80,0.00,,,0.00,,2013-02-22 04:11:00,
2013-02-21 23:21:00,22.0,17.0,30.50,NW,319,0.0,2.0,80,0.00,,,0.00,,2013-02-22 04:21:00,
2013-02-21 23:32:00,23.0,18.0,30.48,NW,319,0.0,1.0,80,0.00,,,0.00,,2013-02-22 04:32:00,
2013-02-21 23:42:00,23.0,18.0,30.48,NW,319,0.0,1.0,80,0.00,,,0.00,,2013-02-22 04:42:00,
2013-02-21 23:52:00,23.0,18.0,30.49,NW,319,0.0,0.0,80,0.00,,,0.00,,2013-02-22 04:52:00,